Wind_Speed
13 12 14 14 14 14 15 15 16 15 14 12 11 10 5 3 13 28 18 18 17 21 20 12 8 7 3 3 4 2 1 3 4 4 2 7 8 5 5 3 5 4 1 6 11
13 14 14 14 13 14 15 15 16 14 12 13 12 9 6 0 4 19 19 20 18 21 12 13 6 8 4 4 4 4 2 3 3 4 4 9 3 8 6 8 6 13 0 13 8
13 15 15 13 13 13 14 15 16 12 11 13 12 9 7 1 4 7 26 22 17 19 7 9 2 2 5 4 5 3 3 3 1 3 6 5 6 3 4 5 4 8 17 11 10
14 15 14 13 12 13 13 15 14 11 9 11 15 9 9 2 3 13 25 19 12 15 19 18 6 4 4 3 3 0 1 1 5 6 6 6 5 5 7 7 9 12 15 11 13
14 14 14 14 13 13 14 15 11 11 9 8 12 11 3 7 2 17 26 14 11 15 20 5 8 3 4 1 2 3 4 7 7 7 6 7 4 5 12 13 9 8 9 11 12
14 14 14 13 13 14 15 14 10 9 8 6 10 8 4 6 9 17 22 11 13 11 13 12 3 3 5 2 3 3 3 8 4 7 5 5 10 2 5 4 11 14 17 13 12
14 14 14 13 14 15 17 14 8 7 6 6 8 5 8 4 8 21 17 9 12 8 3 6 4 5 1 2 3 3 5 7 0 4 4 7 3 3 8 7 14 16 16 13 12
14 14 14 13 14 15 17 9 7 5 5 4 5 3 3 5 11 23 21 7 11 10 5 6 4 5 4 3 4 4 4 6 7 8 4 5 7 8 16 14 22 19 17 17 12
13 14 13 12 14 17 15 3 9 0 4 6 2 3 2 5 12 22 19 8 5 5 9 5 5 4 7 4 3 7 3 4 9 2 3 2 16 16 23 18 17 16 18 14 13
13 13 12 12 14 19 9 1 4 5 4 2 6 4 7 5 11 18 18 10 6 4 4 8 5 4 4 6 2 4 4 4 9 5 5 15 18 23 23 14 15 12 11 8 8
11 11 10 12 14 19 6 2 5 4 13 4 1 1 3 15 3 18 16 5 5 10 5 6 6 3 3 2 4 3 4 10 12 11 5 12 19 25 19 14 6 5 5 7 8
10 10 7 10 13 16 5 7 2 1 5 3 1 2 2 7 5 12 15 6 7 5 6 5 2 1 5 4 3 2 7 8 10 4 7 14 23 21 11 5 2 2 5 6 8
10 9 7 8 9 6 12 6 4 2 4 3 2 3 4 6 3 8 8 2 5 5 5 1 1 3 3 2 4 3 4 5 6 15 2 6 9 6 4 1 3 1 3 5 9
8 7 7 7 2 4 3 3 4 3 4 4 3 3 2 2 3 4 7 2 4 4 3 3 3 3 3 2 1 6 3 7 12 9 4 6 6 6 3 5 2 5 7 6 9
7 5 4 7 2 3 1 1 2 2 4 1 4 4 3 6 4 3 7 5 3 4 2 2 4 4 2 2 2 8 9 14 9 5 4 1 4 9 3 1 2 7 10 11 10
4 4 3 2 3 4 2 1 1 6 5 3 3 6 2 5 5 6 6 7 1 2 1 4 3 2 2 5 3 8 7 8 1 0 2 4 2 8 4 2 2 6 10 10 12
6 5 2 1 2 2 1 2 5 5 3 5 2 4 2 6 5 7 5 7 5 6 7 7 1 3 2 4 2 10 6 5 6 4 5 2 4 11 3 4 4 9 14 9 15
8 6 3 3 4 4 2 5 4 2 6 0 2 2 2 5 3 6 3 3 6 5 3 4 8 4 4 1 3 3 2 4 4 4 10 15 6 5 5 4 5 15 16 22 19
11 7 3 4 4 4 5 3 7 7 6 7 2 5 4 2 1 2 3 3 2 2 4 3 6 3 2 2 3 4 2 4 5 2 4 4 6 8 4 7 18 18 22 22 18
13 7 4 6 6 3 4 6 3 2 5 4 5 2 4 4 0 3 1 2 4 2 3 2 5 1 4 2 1 4 3 4 3 5 6 6 7 9 5 14 20 22 22 17 20
11 3 6 7 6 4 3 6 4 3 2 4 5 3 4 3 1 1 3 3 2 3 2 4 3 5 2 1 2 4 3 2 2 2 3 6 8 3 6 18 21 23 17 20 20
7 2 6 11 3 1 3 5 4 4 2 2 4 3 6 6 3 2 4 4 3 3 4 3 3 5 7 3 3 1 4 4 3 4 4 5 8 4 13 20 26 25 18 20 20
3 3 1 3 4 3 2 1 3 4 4 5 3 1 2 5 1 3 4 2 2 5 5 4 2 4 9 5 2 2 3 2 0 0 7 3 8 14 22 24 24 14 20 19 20
3 3 2 1 2 6 5 4 4 2 3 3 4 4 4 2 2 4 4 2 2 3 3 6 3 7 6 5 2 5 6 7 4 3 3 9 20 27 25 25 24 16 19 19 18
3 4 3 5 5 5 5 7 5 6 1 4 1 5 6 3 1 4 2 2 1 2 3 4 4 4 8 16 9 14 17 12 9 12 5 9 16 26 21 22 18 17 18 18 19
6 5 2 1 4 9 8 9 11 5 8 6 5 9 7 6 7 9 6 4 5 3 4 1 3 3 5 4 3 9 16 16 14 12 15 19 21 10 20 18 12 18 18 19 17
7 8 4 2 3 6 6 7 10 10 4 2 7 6 6 7 5 2 2 5 6 7 5 5 1 3 6 6 10 5 6 6 4 6 5 6 10 17 19 17 9 18 18 17 17
Wind_Direction
359 350 353 351 347 351 353 353 352 355 2 3 1 4 351 15 41 40 39 352 341 342 346 356 13 38 76 76 43 137 144 234 237 200 287 8 359 340 311 251 343 321 286 332 343
346 348 347 346 347 350 351 350 350 358 7 6 359 3 355 222 29 40 6 358 356 359 2 5 3 3 40 24 20 61 167 245 25 12 345 326 338 329 336 343 307 300 12 344 351
342 345 345 345 347 350 348 350 348 1 6 14 14 11 24 92 61 343 354 355 5 9 19 17 27 61 68 37 0 351 200 324 239 319 349 287 297 312 284 279 255 306 307 325 318
342 345 349 348 350 348 349 350 353 357 356 8 19 13 41 20 64 338 349 351 4 14 39 33 30 53 73 69 336 100 71 350 306 336 330 302 312 291 245 266 293 314 313 305 310
341 344 344 345 347 344 346 347 352 352 348 345 7 17 33 42 39 342 349 2 8 22 33 47 48 63 82 41 10 47 331 319 312 304 278 285 291 264 279 284 304 307 320 314 312
340 341 340 342 343 341 341 341 342 351 358 0 6 19 65 70 329 342 352 23 24 27 36 40 73 73 98 84 76 288 289 294 318 303 308 351 298 226 263 308 315 310 306 298 288
338 339 336 339 340 340 338 337 341 344 352 6 19 71 66 152 1 3 9 30 20 36 50 41 42 77 139 84 312 326 359 336 285 333 306 321 359 237 246 299 299 298 299 292 282
338 338 335 338 338 339 337 343 346 344 2 350 14 77 106 3 19 13 15 29 42 47 66 38 53 92 47 339 26 40 53 357 301 340 312 36 281 271 291 290 295 305 297 293 280
337 339 336 337 340 341 337 38 18 173 351 15 35 75 34 342 357 4 3 354 11 52 48 44 59 68 7 32 30 25 295 300 313 350 270 46 294 285 288 295 297 296 302 302 302
332 337 336 339 342 345 342 218 16 20 331 1 40 49 21 311 321 350 3 12 25 357 17 34 47 64 25 27 337 305 327 260 275 281 339 294 283 291 291 299 296 304 314 331 335
325 334 337 340 341 348 352 300 19 354 40 80 301 125 321 330 7 3 354 356 21 56 23 355 55 36 336 259 233 234 240 261 271 279 297 290 297 287 303 302 297 330 4 342 325
319 326 336 340 341 351 17 74 107 172 84 38 309 357 330 340 2 342 10 53 43 39 346 18 57 327 291 255 260 244 276 282 284 253 328 306 290 287 305 286 202 112 331 314 314
313 319 332 342 343 352 61 86 96 68 87 22 30 10 326 1 26 333 18 53 60 47 23 112 22 322 304 321 348 274 241 292 291 321 316 328 283 333 325 350 174 305 283 304 305
307 313 328 338 24 18 28 70 120 61 70 306 336 0 351 349 72 347 11 53 43 27 350 221 333 340 321 25 358 309 186 291 300 333 297 67 288 296 284 294 81 302 324 319 318
299 296 336 15 82 69 49 22 119 87 16 296 318 317 353 75 290 5 359 17 76 334 33 311 339 331 345 323 325 257 320 293 302 281 306 223 253 273 322 155 304 314 327 317 322
270 266 300 327 48 99 87 123 282 46 264 334 324 343 18 17 11 311 16 38 109 82 289 263 295 255 284 295 273 298 315 317 104 35 272 233 182 277 274 228 308 285 296 297 318
227 226 246 296 124 108 50 357 43 123 356 295 347 16 66 350 3 22 51 25 40 31 1 327 264 297 346 319 4 12 5 346 356 4 236 150 286 252 248 217 242 314 332 316 316
200 191 198 163 140 128 65 45 94 201 218 330 38 21 79 350 18 3 71 59 40 63 69 36 327 14 355 56 298 345 58 125 288 297 293 282 234 257 193 225 277 329 339 330 321
183 163 166 169 156 141 76 60 210 198 162 152 60 75 322 316 285 67 62 126 96 97 122 41 276 324 263 272 136 287 2 193 261 248 278 268 282 289 212 317 340 336 325 321 320
164 157 175 173 157 112 79 234 195 187 131 112 155 118 187 264 236 63 6 248 131 122 145 160 312 224 279 294 202 153 310 10 0 309 296 266 281 272 311 337 322 331 324 324 322
151 108 166 160 137 51 176 218 208 221 134 137 179 135 216 221 169 182 194 236 140 150 116 134 125 278 335 220 188 344 351 345 268 237 272 306 294 237 0 328 334 330 328 331 326
153 141 161 157 73 351 183 185 166 149 170 95 108 117 169 168 137 166 190 199 133 138 146 167 174 276 255 259 282 263 225 153 128 302 269 269 270 295 336 339 336 327 337 332 329
116 101 94 203 155 221 293 165 195 145 181 161 153 130 147 169 68 201 225 198 171 161 164 183 280 333 345 5 14 247 189 184 97 87 240 274 278 314 328 336 332 331 337 333 330
129 131 336 325 276 145 145 203 192 226 153 138 127 109 111 72 352 197 218 199 155 186 185 160 176 181 208 221 103 288 273 278 164 243 269 247 287 312 328 330 332 342 337 333 335
139 195 181 196 230 171 159 145 144 178 190 173 116 212 167 136 255 230 239 187 144 215 131 152 229 203 257 267 273 269 267 259 210 231 253 276 300 304 333 326 329 338 334 339 343
140 148 136 282 164 140 170 208 176 177 157 213 203 187 180 164 193 199 152 201 181 162 147 90 273 316 288 300 170 274 267 259 246 249 251 266 284 340 328 322 338 343 343 344 346
191 123 101 154 191 142 199 183 194 146 237 150 167 133 193 229 152 52 71 106 156 148 164 154 143 31 270 335 309 320 232 209 240 208 202 273 299 328 321 328 349 344 350 345 347
Height
839 837 835 833 831 828 825 823 820 817 815 813 811 809 807 807 807 802 800 810 805 798 793 790 787 786 788 790 791 791 800 802 799 793 789 792 793 782 781 779 774 769 770 769 765
839 837 835 833 831 828 825 822 820 817 814 813 811 809 807 807 807 806 811 808 804 799 793 792 791 789 794 795 798 799 804 802 803 801 801 800 797 793 788 784 778 773 767 767 767
839 837 835 832 830 828 826 822 820 817 814 813 811 809 807 807 809 812 810 806 803 799 794 793 792 793 801 804 810 808 807 809 803 804 805 800 796 791 789 785 778 777 770 768 768
839 837 834 832 830 828 825 822 820 817 815 813 811 809 808 808 818 815 811 807 803 800 795 794 795 800 809 809 813 807 807 807 806 804 805 800 796 792 787 783 779 777 774 770 767
839 836 834 832 829 828 825 822 820 818 816 814 812 809 809 815 821 816 811 806 803 801 797 798 802 807 813 814 812 811 811 809 807 806 803 799 799 795 789 783 781 777 774 770 766
838 835 833 831 829 827 824 822 820 818 816 814 812 811 811 823 819 816 811 808 805 803 803 801 805 806 812 813 813 816 815 812 807 804 803 802 796 796 785 780 778 773 768 766 763
837 835 833 830 828 826 824 821 819 817 816 814 812 812 815 824 819 816 811 809 807 806 806 806 806 807 811 812 816 815 815 811 804 805 805 801 791 791 782 780 776 771 766 763 760
836 834 832 830 827 825 823 820 818 817 816 815 813 813 820 820 819 815 811 809 808 807 807 806 806 808 813 815 817 821 825 825 805 807 802 801 798 786 777 776 768 767 763 758 755
835 833 832 829 827 825 821 819 817 817 817 815 815 814 822 819 817 815 813 811 809 809 808 807 807 817 818 823 823 830 833 832 821 807 810 805 797 781 769 771 768 765 759 756 752
834 832 831 829 827 824 820 819 818 818 817 816 816 820 823 828 822 818 814 812 811 811 811 813 820 828 834 831 838 832 836 831 827 811 808 802 793 775 762 767 764 764 762 759 754
833 831 830 829 828 823 820 819 822 823 821 833 833 830 829 826 822 820 816 814 815 820 830 827 830 834 835 834 830 833 837 832 819 808 809 798 789 767 761 761 763 765 762 759 755
832 830 828 829 828 825 821 823 829 831 833 831 831 830 829 828 827 822 819 823 826 833 834 831 830 831 833 830 830 829 827 826 811 806 809 796 781 763 763 761 760 759 759 756 752
832 831 829 827 827 828 826 828 829 830 833 831 833 833 833 832 833 831 826 829 834 835 842 841 832 834 833 829 826 823 824 820 822 809 801 797 780 768 756 759 758 757 754 754 752
832 831 830 827 829 829 831 830 828 830 858 834 833 834 833 832 833 834 832 834 834 840 841 838 836 836 832 826 828 825 819 822 820 820 827 803 811 771 760 761 758 758 752 750 747
831 831 830 829 829 829 834 832 830 830 866 839 838 834 834 836 840 834 836 833 838 841 841 829 839 840 829 826 826 823 822 818 815 818 818 805 809 769 755 753 756 755 749 746 744
829 831 831 831 830 831 831 832 832 856 857 849 844 845 837 844 842 840 838 837 840 840 843 844 842 841 833 829 828 826 819 814 816 815 828 805 800 765 756 753 755 752 747 744 741
828 830 831 832 831 831 833 833 856 858 859 857 850 850 850 853 847 850 849 856 861 864 874 851 836 838 837 834 828 830 835 862 850 852 826 794 793 765 755 755 751 748 742 743 737
825 828 830 831 831 831 833 850 858 883 881 857 855 854 850 861 856 854 852 863 863 873 890 882 853 840 841 838 838 839 844 876 878 852 809 782 791 756 749 748 747 745 740 735 731
825 828 829 831 831 831 840 872 846 860 855 857 861 876 879 864 859 854 860 867 860 866 887 890 857 843 841 839 841 845 861 838 832 852 825 787 769 749 748 746 741 744 742 735 729
822 825 829 831 831 832 853 840 853 845 847 850 856 884 879 886 859 862 867 861 859 861 867 872 895 846 843 840 837 842 840 856 866 852 835 791 768 749 746 748 749 748 741 734 732
819 826 828 829 832 840 856 852 849 843 841 844 866 886 883 879 881 889 878 862 857 861 862 871 884 850 845 837 841 857 864 855 842 835 832 801 761 748 752 754 750 746 739 737 729
817 827 827 828 844 868 853 848 838 842 843 845 852 861 868 880 889 881 867 861 857 859 875 869 882 885 849 840 844 841 853 855 867 840 829 821 779 746 745 748 748 745 743 737 730
819 824 828 829 843 850 851 838 837 839 841 843 845 847 864 875 864 880 865 856 856 860 871 872 897 907 861 847 839 839 838 839 861 855 836 824 781 737 747 752 751 747 744 738 728
818 824 831 831 830 825 839 838 836 835 838 838 846 849 860 873 869 877 860 856 856 858 856 862 885 888 871 841 853 845 839 838 862 857 825 805 780 754 755 759 751 750 746 738 730
804 813 814 828 825 819 819 827 831 836 835 839 844 842 847 869 875 871 863 857 858 857 860 865 893 889 868 854 856 851 846 842 850 833 830 797 790 772 765 764 755 755 747 739 731
794 803 815 819 809 813 816 827 820 830 830 834 838 832 843 847 841 858 860 861 857 861 863 868 889 871 873 851 847 844 830 827 824 824 817 807 786 767 767 764 760 757 751 742 735
785 787 795 810 811 805 809 809 809 816 825 820 825 834 840 837 839 842 847 848 849 859 867 873 885 899 893 858 854 844 813 803 812 809 808 801 775 770 772 764 764 759 754 747 740